Regional Weather Roundup
Issued by NWS

Home | Current Version | Previous Version | Text Only | Print | Product List | Glossary On
Versions: 1 2 3 4 5 6 7 8 9 10 11 12 13 14 15 16 17 18 19 20 21 22 23 24 25 26 27 28 29 30 31 32 33 34 35 36 37 38 39 40 41 42 43 44 45 46 47 48 49 50
265
ASUS43 KMPX 222310
RWRMN
WEATHER ROUNDUP FOR MINNESOTA
NATIONAL WEATHER SERVICE TWIN CITIES/CHANHASSEN MN
600 PM CDT MON MAY 22 2017


NOTE: "FAIR" INDICATES FEW OR NO CLOUDS BELOW 12,000 FEET WITH NO
SIGNIFICANT WEATHER AND/OR OBSTRUCTIONS TO VISIBILITY. N/A MEANS
CURRENT SKY AND/OR WEATHER CONDITIONS ARE NOT AVAILABLE.

MNZ060>063-068>070-230000-
   Twin Cities Metro

CITY           SKY/WX    TMP DP  RH WIND       PRES   REMARKS
TWIN CITIES    MOSUNNY   65  40  39 W13       29.81S
ST PAUL        PTSUNNY   63  44  50 NW13G18   29.81S
CRYSTAL        MOSUNNY   64  39  39 NW15G22   29.81S
BLAINE         MOSUNNY   64  43  45 W14       29.82S
LAKEVILLE      PTSUNNY   63  48  59 W7        29.81S
EDEN PRAIRIE   MOSUNNY   66  44  45 NW9       29.80F
SOUTH ST PAUL  MOSUNNY   65  40  41 NW7       29.80F
LAKE ELMO      PTSUNNY   63  45  51 NW10      29.83R
$$
MNZ001>005-007-008-013>017-022>024-027-028-230000-
   Northwest Minnesota

CITY           SKY/WX    TMP DP  RH WIND       PRES   REMARKS
BEMIDJI        CLOUDY    45  43  93 NW7       29.83S
HALLOCK        CLOUDY    54  46  76 N13       29.87R
ROSEAU         LGT RAIN  52  45  76 N8        29.85R
WARROAD        DRIZZLE   48  46  93 N9        29.85R
THIEF RVR FALL CLOUDY    50  43  76 N7        29.86S
CROOKSTON      LGT RAIN  46  46 100 N14       29.87S
FOSSTON        DRIZZLE   45  43  93 N12       29.86R
DETROIT LAKES  CLOUDY    50  41  71 NW16      29.86S
MOORHEAD       CLOUDY    52  45  76 N16       29.89R
PARK RAPIDS    LGT RAIN  51  40  65 NW12      29.82S
MAHNOMEN       CLOUDY    48  43  84 N9        29.85S
$$
MNZ006-009>011-018-025>026-230000-
   North Central Minnesota

CITY           SKY/WX    TMP DP  RH WIND       PRES   REMARKS
BAUDETTE       LGT RAIN  48  45  89 N10       29.82R
FLAG ISLAND    DRIZZLE   50  43  76 N16       29.83R
INTL FALLS     CLOUDY    50  42  74 NW7       29.80R
WASKISH        CLOUDY    48  45  87 NW7       29.82S
BIG FORK       CLOUDY    48  45  87 NW3       29.81S
LONGVILLE      CLOUDY    52  41  66 NW7       29.82R
GRAND RAPIDS   CLOUDY    50  43  77 NW13      29.82R
CRANE LAKE     CLOUDY    48  43  81 N6        29.81R
ORR            DRIZZLE   48  43  81 NW5       29.78R
COOK           CLOUDY    50  43  76 W9        29.80S
WALKER         CLOUDY    47  43  85 NW8       29.83R
$$
MNZ012-019>021-037-230000-
   Northeast Minnesota

CITY           SKY/WX    TMP DP  RH WIND       PRES   REMARKS
DULUTH         PTSUNNY   54  43  66 W12       29.79S
ELY            CLOUDY    48  46  93 NW3       29.78S
HIBBING        CLOUDY    50  45  83 NW9       29.79S
EVELETH        CLOUDY    52  46  82 NW12      29.80S
DULUTH HARBOR  CLOUDY    55  46  71 W9        29.80F
TWO HARBORS    CLOUDY    57  46  67 W10G17    29.77S
SILVER BAY     CLOUDY    55  46  71 SW5       29.76S
GRAND MARAIS     N/A     44  40  85 SW6       29.76S
G MARAIS ARPRT CLOUDY    52  39  62 W7        29.77S
$$
MNZ029>031-032-039>041-046>048-054>057-064-230000-
   West Central Minnesota

CITY           SKY/WX    TMP DP  RH WIND       PRES   REMARKS
FERGUS FALLS   CLOUDY    54  43  66 N14G22    29.86S
WHEATON        CLOUDY    54  43  66 N16G22    29.90R
MORRIS         PTSUNNY   59  45  58 N21       29.85S
ALEXANDRIA     CLOUDY    54  41  61 NW14      29.85S
ELBOW LAKE     CLOUDY    52  43  71 NW14      29.87R
WADENA         CLOUDY    52  43  71 NW10      29.84S
GLENWOOD       MOSUNNY   57  43  58 NW16      29.85S
APPLETON       PTSUNNY   63  39  42 NW15G21   29.84S
BENSON         MOSUNNY   63  43  48 N10       29.86R
ORTONVILLE     MOSUNNY   61  43  51 N17       29.85S
MADISON        PTSUNNY   64  45  48 N13       29.85R
WILLMAR        FAIR      63  46  55 N14G20    29.85R
$$
MNZ033>034-036-042>043-049>051-058-059-230000-
   Central Minnesota

CITY           SKY/WX    TMP DP  RH WIND       PRES   REMARKS
ST CLOUD       PTSUNNY   60  44  55 N10G21    29.82S
SAUK CENTRE    CLOUDY    56  42  58 NW14      29.84S
PAYNESVILLE    CLOUDY    58  42  54 N14       29.83F
AITKIN         CLOUDY    52  43  71 CALM      29.81S
PINE RIVER     CLOUDY    54  43  66 W5        29.85S
BRAINERD       CLOUDY    53  41  63 NW7       29.83R
STAPLES        CLOUDY    52  39  62 NW9       29.83S
LONG PRAIRIE   CLOUDY    54  41  62 W8        29.84S
LITTLE FALLS   CLOUDY    54  41  62 W5        29.83F
LITCHFIELD     PTSUNNY   63  46  55 NW10G16   29.83S
BUFFALO        PTSUNNY   61  41  48 NW9       29.83F
MAPLE LAKE     CLOUDY    61  46  57 W7        29.83S
HUTCHINSON     CLOUDY    63  46  53 NW14G20   29.83F
$$
MNZ037-044-045-052-053-230000-
   East Central Minnesota

CITY           SKY/WX    TMP DP  RH WIND       PRES   REMARKS
PRINCETON      PTSUNNY   63  45  51 W10       29.82S
MORA           CLOUDY    54  41  62 W10       29.84R
CAMBRIDGE      CLOUDY    63  45  51 NW10      29.80S
RUSH CITY      CLOUDY    58  43  56 NW6       29.82S
MOOSE LAKE     CLOUDY    54  41  62 NW10G18   29.80R
HINCKLEY       CLOUDY    54  45  71 CALM      29.82S
CLOQUET        CLOUDY    54  43  66 W3        29.80S
MCGREGOR       CLOUDY    50  43  76 NW8       29.82S
$$
MNZ071>073-080-081-089-090-097-098-230000-
   Southwest Minnesota

CITY           SKY/WX    TMP DP  RH WIND       PRES   REMARKS
MONTEVIDEO     PTSUNNY   63  45  51 N16       29.84R
CANBY          LGT RAIN  58  47  66 W3        29.87R
MARSHALL       LGT RAIN  57  48  72 N8        29.85R
REDWOOD FALLS  LGT RAIN  60  43  53 N7        29.83S
OLIVIA         MOSUNNY   61  43  51 N9G17     29.82S
PIPESTONE      CLOUDY    55  46  71 N14       29.87R
WINDOM         LGT RAIN  57  50  77 NE3       29.84R
WORTHINGTON    CLOUDY    59  50  72 NW13      29.84S
JACKSON        CLOUDY    54  50  87 N9        29.85R
TRACY          CLOUDY    57  52  83 N9        29.84S
SLAYTON        CLOUDY    54  49  82 W7        29.86R
$$
MNZ065>067-074>077-082>085-091>093-230000-
   South Central Minnesota

CITY           SKY/WX    TMP DP  RH WIND       PRES   REMARKS
MANKATO        CLOUDY    62  47  57 NW7       29.82F
NEW ULM        CLOUDY    63  46  55 N10       29.82S
ST JAMES       CLOUDY    61  48  63 N7        29.83R
FAIRMONT       RAIN      61  49  64 NW12      29.82R
GLENCOE        MOSUNNY   64  48  57 W6G16     29.82S
FARIBAULT      MOSUNNY   64  46  52 W7        29.82S
OWATONNA       CLOUDY    64  45  48 NW9       29.81F
WASECA         PTSUNNY   63  46  55 N9        29.82F
ALBERT LEA     SUNNY     66  45  45 CALM      29.79F
$$
MNZ078>079-086>088-094>096-230000-
   Southeast Minnesota

CITY           SKY/WX    TMP DP  RH WIND       PRES   REMARKS
ROCHESTER      SUNNY     65  48  54 W9        29.81F
RED WING       MOSUNNY   66  41  39 W7        29.80S
STANTON        PTSUNNY   66  47  50 W12       29.80S
DODGE CENTER   SUNNY     64  45  48 NW6       29.81F
WINONA         MOSUNNY   70  46  43 NW6       29.80F
AUSTIN         MOSUNNY   66  45  45 NW6       29.79F
PRESTON        SUNNY     65  47  53 NW5       29.81F
$$
ABBREVIATIONS USED IN REMARKS
   TC - TEMPERATURES IN CELSIUS
  WCI - WIND CHILL INDEX
   HX - HEAT INDEX
  VSB - VISIBILITY
$$




USA.gov is the U.S. government's official web portal to all federal, state and local government web resources and services.